Location: Gouy
(50.0008°N, 3.2556°E)
Time: 10:13:02
(UTC+00:00)

Cosmos 1782 Rocket - Pass Details

Date: 23 August 2024
Orbit: 603 x 627 km, 82.5° (Epoch: 07 September)

Event Time Altitude Azimuth Distance (km) Brightness Sun altitude
Exits shadow 03:42:32 14° 225° (SW) 1,767 5.3 -10.5°
Maximum altitude 03:45:59 36° 288° (WNW) 1,008 4.3 -10.0°
Drops below altitude 10° 03:50:07 10° 355° (N) 2,018 6.5 -9.4°
Sets 03:52:31 0° 4° (N) 2,931 7.5 -9.1°
